Cadillac, MI

3:38 PM EDT on July 24, 2017 (GMT -0400)
Wexford County

Weather History for KCAD - December, 2012

Change the Weather History Date:

Thursday, December 13, 2012

  Actual Average Record
Temperature  
Mean Temperature 36 °F -  
Max Temperature 42 °F 32 °F 56 °F (2015)
Min Temperature 31 °F 17 °F -11 °F (1989)
Degree Days  
Heating Degree Days 28    
Moisture  
Dew Point 27 °F    
Average Humidity 71    
Maximum Humidity 88    
Minimum Humidity 53    
Precipitation  
Precipitation 0.00 in - - ()
Sea Level Pressure  
Sea Level Pressure 30.11 in    
Wind  
Wind Speed 10 mph (SSW)    
Max Wind Speed 18 mph    
Max Gust Speed 26 mph    
Visibility 10 miles    
Events      
Averages and records for this station are not official NWS values.
T = Trace of Precipitation, MM = Missing Value Source: NWS Daily Summary

Daily Weather History Graph

Daily Weather History Graph

Search for Another Location

Airport or City:

Trip Planner

Search our weather history database for the weather conditions in past years. The results will help you decide how hot, cold, wet, or windy it might be!

Date:

Astronomy

Dec. 13, 2012 Rise Set
Actual Time 8:09 AM EST 5:02 PM EST
Civil Twilight 7:36 AM EST 5:36 PM EST
Nautical Twilight 6:59 AM EST 6:12 PM EST
Astronomical Twilight 6:24 AM EST 6:48 PM EST
Moon 8:16 AM EST (12/13) 5:45 PM EST (12/13)
Length of Visible Light 10h 00m
Length of Day
8h 53m
New Moon, 0% of the Moon is Illuminated
Dec 13
New Moon
Dec 20
First Quarter
Dec 28
Full
Jan 4
Last Quarter
Jan 11
New

Hourly Weather History & Observations

Time (EST) Temp. Windchill Dew Point Humidity Pressure Visibility Wind Dir Wind Speed Gust Speed Precip Events Conditions
12:15 AM 33.8 °F 25.3 °F 22.8 °F 64% 30.20 in 10.0 mi SSW 11.5 mph - N/A   Clear
12:34 AM 33.8 °F 25.3 °F 22.8 °F 64% 30.19 in 10.0 mi SSW 11.5 mph - N/A   Clear
12:55 AM 33.8 °F 26.4 °F 22.8 °F 64% 30.20 in 10.0 mi SSW 9.2 mph - N/A   Clear
1:15 AM 33.8 °F 25.8 °F 22.3 °F 63% 30.19 in 10.0 mi SSW 10.4 mph 16.1 mph N/A   Clear
1:35 AM 33.8 °F 25.3 °F 23.0 °F 65% 30.19 in 10.0 mi SSW 11.5 mph - N/A   Clear
1:55 AM 33.8 °F 25.8 °F 23.0 °F 65% 30.19 in 10.0 mi SSW 10.4 mph - N/A   Scattered Clouds
2:15 AM 33.8 °F 25.8 °F 24.3 °F 68% 30.20 in 10.0 mi SSW 10.4 mph - N/A   Scattered Clouds
2:35 AM 33.8 °F 25.8 °F 24.8 °F 70% 30.19 in 10.0 mi South 10.4 mph - N/A   Clear
2:55 AM 33.3 °F 26.4 °F 25.3 °F 73% 30.20 in 10.0 mi SSW 8.1 mph - N/A   Clear
3:15 AM 32.5 °F 24.8 °F 25.5 °F 75% 30.21 in 10.0 mi South 9.2 mph - N/A   Clear
3:35 AM 32.4 °F 24.0 °F 25.7 °F 76% 30.21 in 10.0 mi South 10.4 mph - N/A   Clear
3:55 AM 31.5 °F 24.2 °F 25.3 °F 78% 30.20 in 10.0 mi South 8.1 mph - N/A   Clear
4:15 AM 31.5 °F 23.5 °F 25.7 °F 79% 30.19 in 10.0 mi South 9.2 mph - N/A   Clear
4:35 AM 31.5 °F 23.5 °F 25.7 °F 79% 30.19 in 10.0 mi South 9.2 mph - N/A   Clear
4:55 AM 31.5 °F 24.9 °F 26.2 °F 81% 30.18 in 10.0 mi South 6.9 mph - N/A   Clear
5:15 AM 31.5 °F 24.2 °F 26.2 °F 81% 30.17 in 10.0 mi South 8.1 mph - N/A   Clear
5:35 AM 31.5 °F 24.2 °F 26.4 °F 82% 30.17 in 10.0 mi SSW 8.1 mph - N/A   Clear
5:55 AM 31.5 °F 24.2 °F 26.4 °F 82% 30.17 in 10.0 mi South 8.1 mph - N/A   Clear
6:15 AM 31.5 °F 23.5 °F 26.6 °F 82% 30.17 in 10.0 mi South 9.2 mph - N/A   Clear
6:35 AM 31.5 °F 24.2 °F 27.0 °F 83% 30.17 in 10.0 mi South 8.1 mph - N/A   Clear
6:55 AM 31.5 °F 24.2 °F 27.1 °F 84% 30.16 in 10.0 mi South 8.1 mph - N/A   Clear
7:15 AM 31.5 °F 24.9 °F 27.3 °F 85% 30.16 in 10.0 mi South 6.9 mph - N/A   Clear
7:35 AM 31.5 °F 24.9 °F 27.5 °F 85% 30.16 in 10.0 mi South 6.9 mph - N/A   Clear
7:55 AM 31.5 °F 26.8 °F 27.5 °F 85% 30.17 in 10.0 mi South 4.6 mph - N/A   Clear
8:15 AM 31.5 °F 25.8 °F 27.5 °F 85% 30.16 in 10.0 mi South 5.8 mph - N/A   Clear
8:35 AM 31.5 °F 24.9 °F 27.5 °F 85% 30.15 in 10.0 mi South 6.9 mph - N/A   Clear
8:55 AM 31.5 °F 24.2 °F 27.5 °F 85% 30.16 in 10.0 mi South 8.1 mph - N/A   Clear
9:15 AM 32.4 °F 26.9 °F 28.0 °F 84% 30.15 in 10.0 mi South 5.8 mph - N/A   Clear
9:35 AM 33.8 °F 26.4 °F 28.4 °F 81% 30.14 in 10.0 mi South 9.2 mph - N/A   Clear
9:55 AM 36.0 °F 29.0 °F 30.2 °F 80% 30.13 in 10.0 mi South 9.2 mph - N/A   Clear
10:15 AM 36.1 °F 31.4 °F 29.3 °F 76% 30.13 in 10.0 mi South 5.8 mph - N/A   Clear
10:35 AM 36.1 °F 29.9 °F 28.2 °F 73% 30.13 in 10.0 mi South 8.1 mph - N/A   Clear
10:55 AM 38.7 °F 32.4 °F 27.9 °F 65% 30.13 in 10.0 mi SSW 9.2 mph 19.6 mph N/A   Clear
11:15 AM 41.0 °F 32.8 °F 28.4 °F 61% 30.12 in 10.0 mi SSW 16.1 mph 23.0 mph N/A   Clear
11:35 AM 41.2 °F 33.7 °F 28.9 °F 62% 30.12 in 10.0 mi SSW 13.8 mph 26.5 mph N/A   Clear
11:55 AM 41.2 °F 33.7 °F 28.2 °F 60% 30.10 in 10.0 mi SSW 13.8 mph - N/A   Clear
12:15 PM 41.2 °F 35.0 °F 28.2 °F 60% 30.10 in 10.0 mi SSW 10.4 mph - N/A   Clear
12:35 PM 41.2 °F 33.0 °F 26.6 °F 56% 30.09 in 10.0 mi SSW 16.1 mph 24.2 mph N/A   Clear
12:54 PM 41.9 °F 34.3 °F 26.6 °F 55% 30.08 in 10.0 mi SSW 15.0 mph 21.9 mph N/A   Clear
1:15 PM 42.1 °F 34.9 °F 27.1 °F 55% 30.08 in 10.0 mi SSW 13.8 mph - N/A   Clear
1:35 PM 41.4 °F 33.3 °F 27.0 °F 57% 30.07 in 10.0 mi SSW 16.1 mph 25.3 mph N/A   Clear
1:54 PM 41.2 °F 33.7 °F 27.3 °F 58% 30.06 in 10.0 mi SSW 13.8 mph 21.9 mph N/A   Clear
2:15 PM 41.7 °F 34.4 °F 27.3 °F 57% 30.05 in 10.0 mi SSW 13.8 mph 18.4 mph N/A   Clear
2:35 PM 41.2 °F 33.0 °F 27.5 °F 58% 30.05 in 10.0 mi SSW 16.1 mph 21.9 mph N/A   Clear
2:55 PM 41.2 °F 35.5 °F 26.6 °F 56% 30.05 in 10.0 mi SSW 9.2 mph - N/A   Clear
3:15 PM 41.2 °F 32.4 °F 25.7 °F 54% 30.04 in 10.0 mi SSW 18.4 mph 23.0 mph N/A   Clear
3:35 PM 41.2 °F 33.0 °F 26.4 °F 56% 30.03 in 10.0 mi SSW 16.1 mph 23.0 mph N/A   Clear
3:55 PM 41.2 °F 35.0 °F 25.3 °F 53% 30.03 in 10.0 mi SSW 10.4 mph 25.3 mph N/A   Clear
4:15 PM 41.2 °F 35.5 °F 26.4 °F 56% 30.03 in 10.0 mi South 9.2 mph - N/A   Clear
4:35 PM 41.2 °F 35.0 °F 26.8 °F 57% 30.02 in 10.0 mi South 10.4 mph - N/A   Clear
4:55 PM 41.2 °F 34.5 °F 26.2 °F 55% 30.01 in 10.0 mi SSW 11.5 mph 17.3 mph N/A   Clear
5:15 PM 40.1 °F 32.4 °F 25.7 °F 56% 30.01 in 10.0 mi SSW 13.8 mph - N/A   Clear
5:35 PM 38.7 °F 29.5 °F 24.6 °F 57% 30.02 in 10.0 mi SW 17.3 mph 23.0 mph N/A   Clear
8:15 PM 36.1 °F 27.7 °F 27.5 °F 71% 30.04 in 10.0 mi SW 12.7 mph - N/A   Clear
8:34 PM 36.1 °F 27.7 °F 28.4 °F 73% 30.04 in 10.0 mi SW 12.7 mph - N/A   Clear
8:55 PM 36.1 °F 28.2 °F 28.9 °F 75% 30.04 in 10.0 mi SW 11.5 mph - N/A   Clear
9:15 PM 36.1 °F 29.3 °F 29.8 °F 78% 30.04 in 10.0 mi SW 9.2 mph - N/A   Clear
9:34 PM 36.1 °F 29.3 °F 30.2 °F 79% 30.04 in 10.0 mi WSW 9.2 mph - N/A   Scattered Clouds
9:55 PM 36.1 °F 30.6 °F 29.8 °F 78% 30.05 in 10.0 mi WSW 6.9 mph - N/A   Scattered Clouds
10:15 PM 36.1 °F 31.4 °F 30.7 °F 81% 30.05 in 10.0 mi WSW 5.8 mph - N/A   Scattered Clouds
10:34 PM 33.8 °F 28.6 °F 28.9 °F 82% 30.05 in 10.0 mi WSW 5.8 mph - N/A   Clear
10:55 PM 33.8 °F 29.6 °F 29.3 °F 84% 30.05 in 10.0 mi West 4.6 mph - N/A   Clear
11:15 PM 32.2 °F 27.7 °F 28.9 °F 88% 30.05 in 10.0 mi WSW 4.6 mph - N/A   Clear
11:35 PM 31.5 °F 26.8 °F 28.0 °F 87% 30.05 in 10.0 mi West 4.6 mph - N/A   Clear
11:55 PM 31.8 °F 27.3 °F 28.2 °F 87% 30.06 in 10.0 mi West 4.6 mph - N/A   Clear